Valladolid(Mil/C, Spain

5:11 AM CET on February 20, 2017 (GMT +0100)
Valladolid Airport

Weather History for LEVD - February, 2014

Change the Weather History Date:

Friday, February 7, 2014

  Actual Average Record
Temperature  
Mean Temperature 38 °F -  
Max Temperature 43 °F - - ()
Min Temperature 32 °F - - ()
Degree Days  
Heating Degree Days 28    
Moisture  
Dew Point 38 °F    
Average Humidity 92    
Maximum Humidity 100    
Minimum Humidity 81    
Precipitation  
Precipitation 0.01 in - - ()
Sea Level Pressure  
Sea Level Pressure 29.97 in    
Wind  
Wind Speed 15 mph ()    
Max Wind Speed 22 mph    
Max Gust Speed 29 mph    
Visibility 6.9 miles    
Events Rain    
T = Trace of Precipitation, MM = Missing Value Source: Averaged Metar Reports

Daily Weather History Graph

Daily Weather History Graph

Search for Another Location

Airport or City:

Trip Planner

Search our weather history database for the weather conditions in past years. The results will help you decide how hot, cold, wet, or windy it might be!

Date:

Astronomy

Feb. 07, 2014 Rise Set
Actual Time 8:25 AM CET 6:42 PM CET
Civil Twilight 7:56 AM CET 7:11 PM CET
Nautical Twilight 7:23 AM CET 7:44 PM CET
Astronomical Twilight 6:50 AM CET 8:16 PM CET
Moon 12:43 PM CET (2/7) 2:27 AM CET (2/7)
Length of Visible Light 11h 15m
Length of Day
10h 17m
First Quarter, 56% of the Moon is Illuminated
Feb 7
First Quarter
Feb 15
Full
Feb 22
Last Quarter
Mar 1
New
Mar 8
First Quarter

Hourly Weather History & Observations

Time (CET) Temp. Windchill Dew Point Humidity Pressure Visibility Wind Dir Wind Speed Gust Speed Precip Events Conditions
7:00 AM 34 °F - 34 °F 100%  in 9 mi WSW 16.1 mph - -   Overcast
7:00 AM 33.8 °F 23.5 °F 33.8 °F 100% 29.92 in 6.2 mi WSW 16.1 mph - N/A   Mostly Cloudy
7:30 AM 33.8 °F 23.5 °F 33.8 °F 100% 29.95 in 6.2 mi WSW 16.1 mph - N/A   Mostly Cloudy
8:00 AM 33.8 °F 24.3 °F 33.8 °F 100% 29.95 in 6.2 mi WSW 13.8 mph - N/A   Mostly Cloudy
8:30 AM 32.0 °F 23.6 °F 32.0 °F 100% 29.98 in 6.2 mi SW 10.4 mph - N/A   Mostly Cloudy
9:00 AM 33.8 °F 26.4 °F 33.8 °F 100% 29.98 in 6.2 mi SSW 9.2 mph - N/A   Mostly Cloudy
9:30 AM 33.8 °F 24.3 °F 33.8 °F 100% 29.98 in 6.2 mi SW 13.8 mph - N/A   Mostly Cloudy
10:00 AM 36 °F - 36 °F 98%  in 16 mi SW 15.0 mph - - Rain Light Rain
10:00 AM 35.6 °F 26.2 °F 35.6 °F 100% 29.98 in 6.2 mi SW 15.0 mph - N/A Rain Light Rain
10:30 AM 37.4 °F 28.5 °F 35.6 °F 93% 30.01 in 6.2 mi SW 15.0 mph - N/A   Mostly Cloudy
11:00 AM 37.4 °F 28.2 °F 37.4 °F 100% 30.01 in 6.2 mi SW 16.1 mph - N/A   Mostly Cloudy
11:30 AM 39.2 °F 29.8 °F 37.4 °F 93% 30.01 in 6.2 mi SW 18.4 mph - N/A   Mostly Cloudy
12:00 PM 39.2 °F 29.8 °F 37.4 °F 93% 30.01 in 6.2 mi SW 18.4 mph - N/A   Overcast
12:30 PM 39.2 °F 29.6 °F 37.4 °F 93% 30.01 in 6.2 mi SW 19.6 mph - N/A   Overcast
1:00 PM 40 °F - 38 °F 92%  in 6 mi SW 21.9 mph - - Rain Light Rain
1:00 PM 41.0 °F 31.4 °F 37.4 °F 87% 30.01 in 6.2 mi SW 21.9 mph - N/A Rain Light Rain
1:30 PM 41.0 °F 31.6 °F 39.2 °F 93% 30.01 in 6.2 mi WSW 20.7 mph - N/A   Overcast
2:00 PM 42.8 °F 34.3 °F 39.2 °F 87% 30.01 in 6.2 mi WSW 19.6 mph - N/A   Mostly Cloudy
2:30 PM 42.8 °F 34.0 °F 39.2 °F 87% 29.98 in 6.2 mi WSW 20.7 mph - N/A Rain Rain
3:00 PM 42.8 °F 34.8 °F 41.0 °F 93% 29.98 in 6.2 mi SW 17.3 mph - N/A Rain Light Rain
3:30 PM 42.8 °F 33.8 °F 37.4 °F 81% 29.98 in 6.2 mi WSW 21.9 mph - N/A   Mostly Cloudy
4:00 PM 43 °F - 40 °F 83%  in 12 mi WSW 17.3 mph - -   Partly Cloudy
4:00 PM 42.8 °F 34.8 °F 39.2 °F 87% 29.98 in 6.2 mi WSW 17.3 mph 28.8 mph N/A   Mostly Cloudy
4:30 PM 42.8 °F 34.5 °F 39.2 °F 87% 29.98 in 6.2 mi SW 18.4 mph - N/A Rain Light Rain
5:00 PM 42.8 °F 34.3 °F 39.2 °F 87% 29.95 in 6.2 mi WSW 19.6 mph - N/A   Mostly Cloudy
5:30 PM 42.8 °F 35.1 °F 39.2 °F 87% 29.95 in 6.2 mi SW 16.1 mph - N/A   Mostly Cloudy
6:00 PM 42.8 °F 34.8 °F 39.2 °F 87% 29.95 in 6.2 mi SW 17.3 mph - N/A   Mostly Cloudy
6:30 PM 42.8 °F 35.4 °F 39.2 °F 87% 29.95 in 6.2 mi SW 15.0 mph - N/A   Mostly Cloudy
7:00 PM 42 °F - 40 °F 88%  in 12 mi SW 15.0 mph - -   Partly Cloudy
7:00 PM 42.8 °F 35.4 °F 39.2 °F 87% 29.95 in 6.2 mi SW 15.0 mph - N/A   Mostly Cloudy
7:30 PM 42.8 °F 35.4 °F 39.2 °F 87% 29.95 in 6.2 mi SW 15.0 mph - N/A   Mostly Cloudy
8:00 PM 42.8 °F 35.4 °F 39.2 °F 87% 29.92 in 6.2 mi SW 15.0 mph - N/A   Mostly Cloudy
8:30 PM 42.8 °F 35.1 °F 39.2 °F 87% 29.92 in 6.2 mi SW 16.1 mph - N/A   Mostly Cloudy
9:00 PM 42.8 °F 36.2 °F 39.2 °F 87% 29.92 in 6.2 mi SW 12.7 mph - N/A   Mostly Cloudy
9:30 PM 41.0 °F 34.3 °F 39.2 °F 93% 29.89 in 6.2 mi SSW 11.5 mph - N/A   Mostly Cloudy